WJA2040 CYYJ-MMPR

Flight info

Callsign WJA2040
Flight time N/A
Altitude 36000
Route CYYJ MB KELNA WANTA LTJ KOATA NEER KOPRR BXK35 UKSEL KEDIX PR660 PR669 MUVBA PR407 PR405 PR404 MMPR
Aircraft B737/L-V/N

Departure

Time N/A
Airport Victoria International Airport (CYYJ)

Arrival

Time 2026-05-05 01:15
Airport Puerto Vallarta International Airport (MMPR)
Time Latitude Longitude Altitude Speed Heading
2026-05-04 23:52 28.71796 -109.81183 35990 ft 484 kts 162°
2026-05-04 23:53 28.65834 -109.77727 35977 ft 485 kts 162°
2026-05-04 23:53 28.59777 -109.74220 35965 ft 485 kts 162°
2026-05-04 23:54 28.53753 -109.70737 35965 ft 486 kts 162°
2026-05-04 23:54 28.47751 -109.67272 35969 ft 486 kts 162°
2026-05-04 23:55 28.41781 -109.63830 35967 ft 486 kts 162°
2026-05-04 23:56 28.32776 -109.58645 35974 ft 486 kts 162°
2026-05-04 23:56 28.26740 -109.55174 35977 ft 487 kts 161°
2026-05-04 23:57 28.20704 -109.51696 35962 ft 486 kts 162°
2026-05-04 23:57 28.14710 -109.48269 35983 ft 483 kts 162°
2026-05-04 23:58 28.08657 -109.44809 35989 ft 482 kts 162°
2026-05-04 23:58 28.02675 -109.41391 35987 ft 483 kts 162°
2026-05-04 23:59 27.96730 -109.37996 35998 ft 483 kts 162°
2026-05-04 23:59 27.90715 -109.34565 36004 ft 484 kts 162°
2026-05-05 00:00 27.84717 -109.31147 36005 ft 484 kts 162°
2026-05-05 00:00 27.78783 -109.27771 36011 ft 485 kts 162°
2026-05-05 00:01 27.72751 -109.24343 36009 ft 485 kts 162°
2026-05-05 00:01 27.67727 -109.21491 36002 ft 486 kts 161°
2026-05-05 00:02 27.61651 -109.18045 36005 ft 486 kts 161°
2026-05-05 00:02 27.55612 -109.14626 36003 ft 487 kts 161°
2026-05-05 00:03 27.49560 -109.11203 35995 ft 488 kts 161°
2026-05-05 00:03 27.43472 -109.07763 35992 ft 488 kts 161°
2026-05-05 00:04 27.37421 -109.04350 36009 ft 489 kts 161°
2026-05-05 00:04 27.31292 -109.00897 35983 ft 490 kts 161°
2026-05-05 00:05 27.25347 -108.97549 35987 ft 489 kts 161°
2026-05-05 00:05 27.19297 -108.94146 35990 ft 490 kts 161°
2026-05-05 00:06 27.13221 -108.90738 35994 ft 490 kts 161°
2026-05-05 00:06 27.07280 -108.87404 36043 ft 488 kts 161°
2026-05-05 00:07 27.01166 -108.83980 36031 ft 489 kts 161°
2026-05-05 00:07 26.95062 -108.80566 36008 ft 489 kts 161°
2026-05-05 00:08 26.88992 -108.77179 36001 ft 488 kts 161°
2026-05-05 00:08 26.82907 -108.73784 35969 ft 490 kts 161°
2026-05-05 00:09 26.76954 -108.70463 35979 ft 490 kts 161°
2026-05-05 00:09 26.70882 -108.67081 35982 ft 490 kts 161°
2026-05-05 00:10 26.64777 -108.63685 35979 ft 489 kts 161°
2026-05-05 00:10 26.58694 -108.60306 35980 ft 488 kts 161°
2026-05-05 00:11 26.52595 -108.56924 35970 ft 489 kts 161°
2026-05-05 00:11 26.46524 -108.53561 35973 ft 489 kts 161°
2026-05-05 00:12 26.40448 -108.50199 35981 ft 489 kts 161°
2026-05-05 00:12 26.34338 -108.46822 35989 ft 490 kts 161°
2026-05-05 00:13 26.28288 -108.43482 35988 ft 489 kts 161°
2026-05-05 00:13 26.22137 -108.40090 35992 ft 490 kts 161°
2026-05-05 00:14 26.16040 -108.36731 35987 ft 490 kts 161°
2026-05-05 00:14 26.09953 -108.33383 35972 ft 490 kts 161°
2026-05-05 00:15 26.03861 -108.30035 35969 ft 491 kts 160°
2026-05-05 00:15 25.97753 -108.26682 35987 ft 489 kts 160°
2026-05-05 00:16 25.91687 -108.23357 35967 ft 489 kts 160°
2026-05-05 00:16 25.85572 -108.20008 35977 ft 488 kts 160°
2026-05-05 00:17 25.79486 -108.16679 35985 ft 488 kts 160°
2026-05-05 00:17 25.73376 -108.13342 35977 ft 488 kts 160°
2026-05-05 00:18 25.67304 -108.10029 35976 ft 488 kts 160°
2026-05-05 00:18 25.61246 -108.06729 35980 ft 488 kts 160°
2026-05-05 00:19 25.55148 -108.03414 35977 ft 488 kts 160°
2026-05-05 00:19 25.50844 -108.01071 35996 ft 488 kts 160°
2026-05-05 00:20 25.49859 -108.00536 35993 ft 488 kts 160°
2026-05-05 00:20 25.43782 -107.97229 35972 ft 488 kts 160°
2026-05-05 00:21 25.37667 -107.93907 35965 ft 488 kts 160°
2026-05-05 00:21 25.31610 -107.90624 35972 ft 489 kts 160°
2026-05-05 00:22 25.25560 -107.87349 35998 ft 488 kts 160°
2026-05-05 00:22 25.19470 -107.84056 35994 ft 488 kts 160°
2026-05-05 00:23 25.13400 -107.80776 35990 ft 487 kts 160°
2026-05-05 00:23 25.07338 -107.77505 35966 ft 487 kts 160°
2026-05-05 00:24 25.01324 -107.74263 35978 ft 486 kts 160°
2026-05-05 00:24 24.95213 -107.70973 36001 ft 486 kts 160°
2026-05-05 00:25 24.89139 -107.67706 35995 ft 486 kts 160°
2026-05-05 00:25 24.83160 -107.64494 36013 ft 485 kts 160°
2026-05-05 00:26 24.76991 -107.61183 36010 ft 486 kts 160°
2026-05-05 00:26 24.70911 -107.57924 36019 ft 485 kts 160°
2026-05-05 00:27 24.64881 -107.54695 36010 ft 485 kts 160°
2026-05-05 00:27 24.58797 -107.51440 36006 ft 485 kts 159°
2026-05-05 00:28 24.52736 -107.48201 36001 ft 485 kts 159°
2026-05-05 00:28 24.46644 -107.44950 35993 ft 486 kts 159°
2026-05-05 00:29 24.40545 -107.41698 35993 ft 485 kts 159°
2026-05-05 00:29 24.34505 -107.38481 35988 ft 486 kts 159°
2026-05-05 00:30 24.28404 -107.35235 35987 ft 486 kts 159°
2026-05-05 00:30 24.22352 -107.32018 35993 ft 486 kts 159°
2026-05-05 00:31 24.16306 -107.28812 35992 ft 486 kts 159°
2026-05-05 00:31 24.10199 -107.25572 35987 ft 485 kts 159°
2026-05-05 00:32 24.04145 -107.22360 35995 ft 485 kts 159°
2026-05-05 00:32 23.98069 -107.19148 35992 ft 485 kts 159°
2026-05-05 00:33 23.91987 -107.15929 35989 ft 485 kts 159°
2026-05-05 00:33 23.85923 -107.12723 35995 ft 485 kts 159°
2026-05-05 00:34 23.79803 -107.09642 35967 ft 482 kts 164°
2026-05-05 00:34 23.73453 -107.07485 35991 ft 478 kts 169°
2026-05-05 00:35 23.67027 -107.05615 35989 ft 478 kts 169°
2026-05-05 00:35 23.60615 -107.03671 35997 ft 479 kts 169°
2026-05-05 00:36 23.54242 -107.01648 35997 ft 479 kts 168°
2026-05-05 00:36 23.47819 -106.99580 35984 ft 479 kts 168°
2026-05-05 00:37 23.41453 -106.97532 35999 ft 479 kts 168°
2026-05-05 00:37 23.35043 -106.95478 35988 ft 479 kts 168°
2026-05-05 00:38 23.28668 -106.93440 35994 ft 479 kts 168°
2026-05-05 00:38 23.22264 -106.91395 35991 ft 479 kts 168°
2026-05-05 00:39 23.15856 -106.89351 35992 ft 479 kts 168°
2026-05-05 00:39 23.09519 -106.87331 35990 ft 478 kts 168°
2026-05-05 00:40 23.03105 -106.85288 35992 ft 478 kts 167°
2026-05-05 00:40 22.96685 -106.83246 35991 ft 478 kts 167°
2026-05-05 00:41 22.90346 -106.81232 35992 ft 478 kts 167°
2026-05-05 00:41 22.83949 -106.79201 35993 ft 478 kts 167°
2026-05-05 00:42 22.77553 -106.77172 35991 ft 478 kts 167°
2026-05-05 00:42 22.71171 -106.75150 35994 ft 478 kts 167°
2026-05-05 00:43 22.64817 -106.73138 35990 ft 478 kts 167°
2026-05-05 00:43 22.58399 -106.71109 35997 ft 478 kts 167°
2026-05-05 00:44 22.52012 -106.69091 35994 ft 478 kts 167°
2026-05-05 00:44 22.45813 -106.67134 36000 ft 477 kts 167°
2026-05-05 00:44 22.42654 -106.66135 35831 ft 467 kts 167°
2026-05-05 00:45 22.39538 -106.65151 35219 ft 464 kts 167°
2026-05-05 00:45 22.36434 -106.64173 34376 ft 467 kts 167°
2026-05-05 00:45 22.33285 -106.63184 33355 ft 472 kts 167°
2026-05-05 00:45 22.30138 -106.62196 32191 ft 479 kts 167°
2026-05-05 00:46 22.26902 -106.61180 30930 ft 487 kts 167°
2026-05-05 00:46 22.23599 -106.60144 29578 ft 495 kts 166°
2026-05-05 00:46 22.20366 -106.59128 28192 ft 499 kts 166°
2026-05-05 00:46 22.17063 -106.58090 26897 ft 500 kts 166°
2026-05-05 00:47 22.13705 -106.57034 25591 ft 494 kts 166°
2026-05-05 00:47 22.10429 -106.56003 24328 ft 487 kts 165°
2026-05-05 00:47 22.07224 -106.54995 23772 ft 462 kts 165°
2026-05-05 00:47 22.04721 -106.54204 23997 ft 419 kts 165°
2026-05-05 00:48 22.02038 -106.53355 24191 ft 378 kts 166°
2026-05-05 00:48 21.99658 -106.52604 24012 ft 358 kts 166°
2026-05-05 00:48 21.97270 -106.51858 23018 ft 367 kts 166°
2026-05-05 00:48 21.94748 -106.51075 21690 ft 383 kts 165°
2026-05-05 00:49 21.92159 -106.50272 20551 ft 392 kts 165°
2026-05-05 00:49 21.89575 -106.49466 20362 ft 377 kts 165°
2026-05-05 00:49 21.87086 -106.48687 20348 ft 376 kts 165°
2026-05-05 00:49 21.84555 -106.47896 20364 ft 380 kts 165°
2026-05-05 00:50 21.82847 -106.47361 20364 ft 379 kts 165°
2026-05-05 00:50 21.80331 -106.46574 20370 ft 378 kts 165°
2026-05-05 00:50 21.77789 -106.45780 20367 ft 379 kts 165°
2026-05-05 00:50 21.75258 -106.44989 20375 ft 379 kts 165°
2026-05-05 00:51 21.72741 -106.44203 20354 ft 380 kts 165°
2026-05-05 00:51 21.70156 -106.43397 19766 ft 384 kts 165°
2026-05-05 00:51 21.67621 -106.42611 19230 ft 379 kts 165°
2026-05-05 00:51 21.65097 -106.41829 18669 ft 375 kts 164°
2026-05-05 00:52 21.62644 -106.41061 18104 ft 368 kts 164°
2026-05-05 00:52 21.60225 -106.40302 17527 ft 360 kts 164°
2026-05-05 00:52 21.57895 -106.39573 17236 ft 349 kts 164°
2026-05-05 00:52 21.55514 -106.38830 16768 ft 348 kts 164°
2026-05-05 00:53 21.53172 -106.38101 16337 ft 351 kts 164°
2026-05-05 00:53 21.50823 -106.37370 15943 ft 351 kts 165°
2026-05-05 00:53 21.48489 -106.36645 15737 ft 348 kts 164°
2026-05-05 00:53 21.46194 -106.35931 15494 ft 348 kts 165°
2026-05-05 00:54 21.43856 -106.35204 15266 ft 347 kts 165°
2026-05-05 00:54 21.41548 -106.34487 15036 ft 347 kts 164°
2026-05-05 00:54 21.39223 -106.33765 14808 ft 348 kts 165°
2026-05-05 00:54 21.36980 -106.33068 14767 ft 345 kts 165°
2026-05-05 00:55 21.34670 -106.32351 14806 ft 351 kts 165°
2026-05-05 00:55 21.32319 -106.31585 14796 ft 354 kts 159°
2026-05-05 00:55 21.30267 -106.30160 14823 ft 351 kts 137°
2026-05-05 00:55 21.28764 -106.28085 14786 ft 356 kts 118°
2026-05-05 00:56 21.27833 -106.25619 14834 ft 357 kts 110°
2026-05-05 00:56 21.27089 -106.23080 14663 ft 361 kts 108°
2026-05-05 00:56 21.26365 -106.20485 14464 ft 358 kts 108°
2026-05-05 00:56 21.25653 -106.18089 14565 ft 347 kts 114°
2026-05-05 00:57 21.24483 -106.16051 15149 ft 322 kts 129°
2026-05-05 00:57 21.23107 -106.14217 15604 ft 308 kts 131°
2026-05-05 00:57 21.21745 -106.12450 15677 ft 309 kts 130°
2026-05-05 00:57 21.20363 -106.10664 15747 ft 309 kts 131°
2026-05-05 00:58 21.18986 -106.08892 15472 ft 319 kts 131°
2026-05-05 00:58 21.17504 -106.07015 14866 ft 333 kts 132°
2026-05-05 00:58 21.16005 -106.05156 14720 ft 330 kts 129°
2026-05-05 00:58 21.14919 -106.02978 14007 ft 343 kts 108°
2026-05-05 00:59 21.14599 -106.00271 11771 ft 398 kts 86°
2026-05-05 00:59 21.14908 -105.97385 11818 ft 371 kts 82°
2026-05-05 00:59 21.15273 -105.94740 12007 ft 348 kts 82°
2026-05-05 00:59 21.15511 -105.92197 12222 ft 348 kts 88°
2026-05-05 01:00 21.15471 -105.89574 12470 ft 350 kts 95°
2026-05-05 01:00 21.15164 -105.86978 12709 ft 356 kts 100°
2026-05-05 01:00 21.14657 -105.84396 12822 ft 353 kts 104°
2026-05-05 01:00 21.14021 -105.81857 12886 ft 352 kts 107°
2026-05-05 01:01 21.13316 -105.79371 12938 ft 352 kts 108°
2026-05-05 01:01 21.12568 -105.76890 12966 ft 353 kts 109°
2026-05-05 01:01 21.11784 -105.74370 12958 ft 355 kts 109°
2026-05-05 01:01 21.10992 -105.71859 12970 ft 355 kts 109°
2026-05-05 01:02 21.10195 -105.69345 12973 ft 356 kts 109°
2026-05-05 01:02 21.09396 -105.66831 12976 ft 356 kts 109°
2026-05-05 01:02 21.08603 -105.64340 12970 ft 356 kts 109°
2026-05-05 01:02 21.07798 -105.61815 12967 ft 355 kts 109°
2026-05-05 01:03 21.07008 -105.59343 12824 ft 354 kts 109°
2026-05-05 01:03 21.06220 -105.56872 12665 ft 347 kts 109°
2026-05-05 01:03 21.05452 -105.54460 12453 ft 332 kts 109°
2026-05-05 01:03 21.04722 -105.52175 12273 ft 316 kts 109°
2026-05-05 01:04 21.04038 -105.50022 12087 ft 303 kts 109°
2026-05-05 01:04 21.02727 -105.45902 11651 ft 283 kts 109°
2026-05-05 01:04 21.02067 -105.43835 10714 ft 303 kts 109°
2026-05-05 01:05 21.01397 -105.41737 10451 ft 294 kts 109°
2026-05-05 01:05 21.00735 -105.39670 10117 ft 289 kts 109°
2026-05-05 01:05 21.00101 -105.37684 9831 ft 283 kts 109°
2026-05-05 01:05 20.99476 -105.35730 9502 ft 278 kts 109°
2026-05-05 01:06 20.98852 -105.33780 9188 ft 274 kts 109°
2026-05-05 01:06 20.98236 -105.31855 8897 ft 268 kts 109°
2026-05-05 01:06 20.97644 -105.30007 8759 ft 260 kts 109°
2026-05-05 01:06 20.97060 -105.28185 8514 ft 263 kts 109°
2026-05-05 01:07 20.96464 -105.26321 7989 ft 270 kts 109°
2026-05-05 01:07 20.95835 -105.24359 7204 ft 288 kts 109°
2026-05-05 01:07 20.95178 -105.22312 6877 ft 286 kts 109°
2026-05-05 01:07 20.94543 -105.20338 6741 ft 273 kts 109°
2026-05-05 01:08 20.93941 -105.18463 6507 ft 257 kts 109°
2026-05-05 01:08 20.93380 -105.16733 6253 ft 241 kts 109°
2026-05-05 01:08 20.92712 -105.15125 5773 ft 236 kts 126°
2026-05-05 01:08 20.91372 -105.13935 3874 ft 282 kts 150°
2026-05-05 01:09 20.89621 -105.12883 3460 ft 268 kts 151°
2026-05-05 01:09 20.88119 -105.12035 3799 ft 221 kts 160°
2026-05-05 01:09 20.86668 -105.11738 3441 ft 213 kts 176°
2026-05-05 01:09 20.85197 -105.11656 3256 ft 207 kts 177°
2026-05-05 01:10 20.83812 -105.11609 3255 ft 190 kts 182°
2026-05-05 01:10 20.82527 -105.11753 3093 ft 185 kts 187°
2026-05-05 01:10 20.81241 -105.11951 2905 ft 181 kts 193°
2026-05-05 01:10 20.80117 -105.12387 2697 ft 172 kts 209°
2026-05-05 01:11 20.79095 -105.13115 2618 ft 180 kts 218°
2026-05-05 01:11 20.78095 -105.13947 2607 ft 182 kts 223°
2026-05-05 01:11 20.77195 -105.14919 2500 ft 184 kts 227°
2026-05-05 01:11 20.76320 -105.15912 2311 ft 186 kts 227°
2026-05-05 01:12 20.75409 -105.16956 2112 ft 197 kts 228°
2026-05-05 01:12 20.74489 -105.18017 2151 ft 193 kts 229°
2026-05-05 01:12 20.73631 -105.19037 2040 ft 182 kts 229°
2026-05-05 01:12 20.72753 -105.20053 1658 ft 188 kts 227°
2026-05-05 01:13 20.71876 -105.21047 1362 ft 174 kts 226°
2026-05-05 01:13 20.71165 -105.21842 995 ft 164 kts 227°
2026-05-05 01:13 20.70529 -105.22555 696 ft 153 kts 227°
2026-05-05 01:13 20.69894 -105.23233 486 ft 141 kts 227°
2026-05-05 01:14 20.69247 -105.23957 172 ft 133 kts 229°
2026-05-05 01:14 20.68669 -105.24645 28 ft 117 kts 228°
2026-05-05 01:14 20.68292 -105.25101 27 ft 92 kts 227°
2026-05-05 01:14 20.67991 -105.25441 29 ft 61 kts 226°
2026-05-05 01:15 20.67871 -105.25564 30 ft 11 kts 214°
2026-05-05 01:15 20.67757 -105.25625 28 ft 26 kts 201°
2026-05-05 01:15 20.67601 -105.25648 28 ft 17 kts 129°
2026-05-05 01:15 20.67627 -105.25585 28 ft 14 kts 41°
2026-05-05 01:16 20.67713 -105.25497 28 ft 19 kts 47°
2026-05-05 01:16 20.67809 -105.25389 28 ft 21 kts 46°
2026-05-05 01:16 20.67917 -105.25265 28 ft 24 kts 47°
2026-05-05 01:16 20.68033 -105.25129 28 ft 20 kts 48°
2026-05-05 01:17 20.68083 -105.25044 28 ft 13 kts 99°
2026-05-05 01:17 20.68034 -105.24981 28 ft 7 kts 136°
2026-05-05 01:17 20.67999 -105.24946 28 ft 7 kts 136°
2026-05-05 01:17 20.67983 -105.24903 28 ft 7 kts 75°
2026-05-05 01:18 20.67996 -105.24856 28 ft 7 kts 88°
2026-05-05 01:18 20.67976 -105.24814 28 ft 6 kts 133°
2026-05-05 01:18 20.67946 -105.24784 28 ft 5 kts 137°
2026-05-05 01:18 20.67918 -105.24787 28 ft 5 kts 220°
2026-05-05 01:19 20.67896 -105.24812 28 ft 5 kts 227°
2026-05-05 01:19 20.67893 -105.24816 28 ft 0 kts 227°
2026-05-05 01:19 20.67890 -105.24818 28 ft 0 kts 227°